TimePDT,TemperatureF,Dew PointF,Humidity,Sea Level PressureIn,VisibilityMPH,Wind Direction,Wind SpeedMPH,Gust SpeedMPH,PrecipitationIn,Events,Conditions,WindDirDegrees,DateUTC
12:53 AM,39.0,33.1,79,29.79,10.0,WSW,3.5,-,N/A,,Clear,250,2012-10-12 07:53:00
1:53 AM,37.0,32.0,82,29.79,10.0,WNW,5.8,-,N/A,,Clear,290,2012-10-12 08:53:00
2:53 AM,37.0,30.9,79,29.79,10.0,Calm,Calm,-,N/A,,Clear,0,2012-10-12 09:53:00
3:53 AM,36.0,30.9,82,29.79,10.0,Calm,Calm,-,N/A,,Clear,0,2012-10-12 10:53:00
4:53 AM,35.1,28.9,78,29.80,10.0,Calm,Calm,-,N/A,,Clear,0,2012-10-12 11:53:00
5:53 AM,36.0,30.0,79,29.80,10.0,WNW,4.6,-,N/A,,Clear,290,2012-10-12 12:53:00
6:53 AM,37.4,32.0,81,29.81,10.0,WNW,5.8,-,N/A,,Clear,300,2012-10-12 13:53:00
7:53 AM,39.0,32.0,76,29.82,9.0,Calm,Calm,-,N/A,,Mostly Cloudy,0,2012-10-12 14:53:00
8:53 AM,44.6,35.6,71,29.82,10.0,NNE,3.5,-,N/A,,Mostly Cloudy,20,2012-10-12 15:53:00
9:53 AM,46.4,37.4,71,29.83,8.0,Calm,Calm,-,N/A,,Mostly Cloudy,0,2012-10-12 16:53:00
10:53 AM,52.0,37.9,59,29.84,8.0,Calm,Calm,-,N/A,,Mostly Cloudy,0,2012-10-12 17:53:00
11:53 AM,55.9,39.0,53,29.84,9.0,Calm,Calm,-,N/A,,Mostly Cloudy,0,2012-10-12 18:53:00
12:53 PM,57.9,39.0,49,29.84,10.0,Calm,Calm,-,N/A,,Mostly Cloudy,0,2012-10-12 19:53:00
1:53 PM,60.1,39.0,46,29.85,9.0,Calm,Calm,-,N/A,,Mostly Cloudy,0,2012-10-12 20:53:00
2:53 PM,62.6,37.4,39,29.84,10.0,Calm,Calm,-,N/A,,Mostly Cloudy,0,2012-10-12 21:53:00
3:53 PM,63.0,39.0,41,29.84,10.0,ESE,3.5,-,N/A,,Mostly Cloudy,110,2012-10-12 22:53:00
4:53 PM,63.0,42.1,46,29.86,10.0,East,3.5,-,N/A,,Mostly Cloudy,80,2012-10-12 23:53:00
5:53 PM,62.1,42.1,48,29.86,8.0,Calm,Calm,-,N/A,,Mostly Cloudy,0,2012-10-13 00:53:00
6:53 PM,59.0,44.6,59,29.87,10.0,Calm,Calm,-,N/A,,Scattered Clouds,0,2012-10-13 01:53:00
7:53 PM,55.9,44.1,64,29.91,9.0,West,4.6,-,N/A,,Mostly Cloudy,270,2012-10-13 02:53:00
8:53 PM,54.0,46.9,77,29.93,10.0,Calm,Calm,-,0.00,Rain,Light Rain,0,2012-10-13 03:53:00
9:53 PM,54.0,48.0,80,29.94,7.0,Calm,Calm,-,0.01,Rain,Light Rain,0,2012-10-13 04:53:00
10:53 PM,55.0,48.9,80,29.96,10.0,Calm,Calm,-,0.01,,Overcast,0,2012-10-13 05:53:00
11:53 PM,55.0,50.0,83,29.96,10.0,Calm,Calm,-,0.00,,Mostly Cloudy,0,2012-10-13 06:53:00